TimeCST,TemperatureF,Dew PointF,Humidity,Sea Level PressureIn,VisibilityMPH,Wind Direction,Wind SpeedMPH,Gust SpeedMPH,PrecipitationIn,Events,Conditions,WindDirDegrees,DateUTC
12:54 AM,35.1,27.0,72,30.09,10.0,SSW,6.9,-,N/A,,Clear,210,2014-02-18 06:54:00
1:54 AM,32.0,26.1,79,30.09,10.0,SW,3.5,-,N/A,,Clear,220,2014-02-18 07:54:00
2:54 AM,34.0,26.1,73,30.10,10.0,SW,4.6,-,N/A,,Clear,230,2014-02-18 08:54:00
3:54 AM,32.0,25.0,75,30.12,10.0,SW,3.5,-,N/A,,Clear,230,2014-02-18 09:54:00
4:54 AM,32.0,25.0,75,30.12,10.0,Calm,Calm,-,N/A,,Clear,0,2014-02-18 10:54:00
5:54 AM,32.0,25.0,75,30.13,10.0,SW,3.5,-,N/A,,Clear,220,2014-02-18 11:54:00
6:54 AM,30.9,24.1,76,30.13,10.0,Calm,Calm,-,N/A,,Clear,0,2014-02-18 12:54:00
7:54 AM,37.0,28.9,73,30.12,10.0,Calm,Calm,-,N/A,,Clear,0,2014-02-18 13:54:00
8:54 AM,45.0,28.9,53,30.12,10.0,SSW,5.8,-,N/A,,Clear,210,2014-02-18 14:54:00
9:54 AM,50.0,32.0,50,30.10,10.0,SSW,6.9,-,N/A,,Clear,200,2014-02-18 15:54:00
10:54 AM,53.1,33.1,47,30.09,10.0,South,11.5,-,N/A,,Clear,170,2014-02-18 16:54:00
11:54 AM,53.1,30.0,41,30.06,10.0,South,16.1,23.0,N/A,,Clear,190,2014-02-18 17:54:00
12:54 PM,55.0,30.9,40,30.02,10.0,South,16.1,24.2,N/A,,Clear,180,2014-02-18 18:54:00
1:54 PM,55.0,30.0,38,29.98,10.0,South,13.8,18.4,N/A,,Clear,170,2014-02-18 19:54:00
2:54 PM,55.9,30.9,39,29.93,10.0,South,15.0,-,N/A,,Clear,170,2014-02-18 20:54:00
3:54 PM,55.0,30.9,40,29.92,10.0,South,10.4,-,N/A,,Clear,180,2014-02-18 21:54:00
4:54 PM,55.0,30.9,40,29.86,10.0,SSE,11.5,20.7,N/A,,Clear,160,2014-02-18 22:54:00
5:54 PM,52.0,30.9,45,29.86,10.0,South,9.2,-,N/A,,Clear,170,2014-02-18 23:54:00
6:54 PM,51.1,30.0,44,29.86,10.0,South,4.6,-,N/A,,Clear,170,2014-02-19 00:54:00
7:54 PM,48.9,30.0,48,29.85,10.0,South,5.8,-,N/A,,Clear,170,2014-02-19 01:54:00
8:54 PM,50.0,30.9,48,29.83,10.0,South,5.8,-,N/A,,Clear,180,2014-02-19 02:54:00
9:54 PM,46.0,30.9,56,29.83,10.0,Calm,Calm,-,N/A,,Overcast,0,2014-02-19 03:54:00
10:54 PM,46.0,32.0,58,29.82,10.0,SSW,3.5,-,N/A,,Mostly Cloudy,210,2014-02-19 04:54:00
11:28 PM,46.0,32.0,58,29.80,10.0,SSW,4.6,-,N/A,,Mostly Cloudy,210,2014-02-19 05:28:00
11:54 PM,44.1,32.0,63,29.80,10.0,SSW,5.8,-,N/A,,Partly Cloudy,210,2014-02-19 05:54:00